Torna al catalogo

ATLAS 5 CENTAUR DEB

LostHEO
NORAD 44012·DEBRIS·🇺🇸 United States

Lanciato Sep 17, 2014 da Cape Canaveral Space Force Station

Loading…

Prossimi Passaggi (prossime 24 ore)

TLE

ObsoletoSource: Space-Track

Epoca: Nov 13, 2023, 06:16 UTC

1 44012U 14055BT  23317.26173977 -.00000111  00000-0  00000+0 0  9997
2 44012  20.8522 268.8807 4583234 305.2062  19.9528  1.75154586 32616

Traccia ATLAS 5 CENTAUR DEB in tempo reale con AllMySat

Download on the App Store